Terug naar catalogus

ATLAS 5 CENTAUR DEB

ActiefHEO
NORAD 43980·DEBRIS·🇺🇸 United States

Gelanceerd Sep 17, 2014 vanaf Cape Canaveral Space Force Station

Loading…

Volgende Passages (komende 24 uur)

TLE

VersSource: Space-Track

Epoch: Sep 9, 2026, 00:23 UTC

1 43980U 14055AK  26252.01604295 -.00000089  00000-0  00000-0 0  9991
2 43980  20.0916 139.3446 4740620 168.6487 207.6473  1.83783903 53725

Volg ATLAS 5 CENTAUR DEB in realtime met AllMySat

Download on the App Store